Theta_e
285 285 285 285 284 284 283 282 282 282 281 281 281 281 281 282 282 282 282 282 282 280 279 278 278 277 277 277 278 277 277 277 276 276 276 276 276 276 276 276 276 276 277 278 278 279 279 280 280 281 281 282 282 283 283 284 284 285 286 286 286 287 287 287 288 288 288 289 289 289 289 290 290 291
285 284 284 284 284 283 283 282 282 282 281 281 280 280 280 281 281 282 282 282 283 281 279 278 278 277 276 276 277 277 277 276 276 276 276 276 276 276 276 276 276 276 276 277 278 278 279 279 280 280 280 281 282 282 283 283 284 285 285 286 286 286 286 287 287 287 287 288 288 289 289 289 289 289
284 284 284 284 284 283 283 282 281 281 281 280 280 279 279 280 280 281 281 281 282 281 279 278 278 277 276 276 276 276 276 276 275 275 276 276 275 275 275 275 275 275 275 275 276 277 278 278 279 279 280 280 281 281 282 283 283 284 284 285 285 285 286 286 286 287 287 287 288 288 288 289 289 289
284 284 283 283 283 283 282 281 281 281 280 280 279 279 279 279 279 280 280 280 281 280 279 279 278 277 276 276 275 276 276 276 275 275 275 276 275 275 275 275 275 275 275 275 275 275 276 277 278 279 279 279 280 281 281 282 283 283 284 284 284 285 285 285 286 286 286 287 287 288 288 288 289 289
283 283 283 283 283 282 282 281 281 280 280 279 279 279 278 278 278 278 279 279 279 279 278 278 278 277 276 276 276 276 276 276 276 275 275 275 275 275 275 275 275 275 274 274 274 275 276 277 277 278 278 279 280 280 281 282 282 283 283 283 283 284 284 285 285 285 286 286 286 287 287 288 288 289
284 283 283 283 282 282 281 281 281 280 279 279 278 278 278 278 278 278 278 278 279 279 278 277 277 277 276 276 276 276 276 276 276 276 275 275 275 275 275 275 275 275 274 274 274 275 276 277 277 278 278 279 279 280 281 281 282 282 282 282 282 283 283 284 284 284 285 285 285 286 287 287 288 288
284 283 283 282 282 282 281 281 280 280 279 279 278 278 278 278 278 277 277 278 278 278 278 277 277 277 276 276 276 276 276 276 275 275 275 275 275 275 275 275 275 274 274 274 275 275 276 276 277 278 278 279 279 280 280 281 281 281 281 281 281 281 282 282 282 283 283 284 284 285 285 286 287 287
284 283 282 282 282 281 281 280 280 279 279 279 278 278 278 278 277 277 277 277 278 278 278 278 277 277 277 276 276 276 276 275 275 275 275 275 275 275 275 274 274 274 274 274 275 275 276 276 277 277 278 278 279 279 279 279 279 280 280 280 280 280 280 281 281 282 282 283 283 284 284 285 285 286
284 283 282 282 282 281 281 280 280 279 279 278 278 278 277 277 277 277 277 277 277 277 277 277 277 277 276 276 276 276 276 275 275 275 275 275 275 275 275 274 274 274 274 274 274 275 275 275 276 276 277 277 277 278 278 278 278 278 279 279 279 279 280 280 280 281 281 282 282 283 283 283 284 285
284 283 283 282 282 282 281 280 280 279 279 278 278 278 277 277 277 277 277 276 276 277 277 277 277 277 276 276 276 276 275 275 275 275 275 275 275 275 275 275 274 274 274 274 274 274 274 274 274 275 275 275 276 276 276 277 277 277 278 278 278 278 279 279 280 280 281 281 281 282 282 282 283 283
284 283 283 282 282 282 281 281 280 279 279 278 278 277 277 277 277 277 276 276 276 276 276 276 276 276 276 276 276 276 275 275 275 275 275 276 275 275 275 275 274 274 274 274 274 274 274 274 274 274 274 274 275 275 276 276 276 277 277 277 278 278 279 279 279 280 280 281 281 281 281 282 282 283
284 283 283 283 282 282 281 281 280 279 279 278 277 277 277 276 276 276 276 276 276 276 276 276 276 276 276 276 276 275 275 275 275 275 275 275 275 275 275 274 274 274 274 274 274 273 273 273 273 273 273 273 274 274 274 275 275 275 276 276 277 277 278 278 279 279 279 280 280 280 281 281 282 282
284 283 283 283 282 282 281 281 280 280 279 278 277 277 277 276 276 276 276 276 276 276 276 276 276 276 276 276 276 275 275 275 275 275 275 275 275 274 274 274 274 273 273 273 273 273 273 273 273 273 273 273 273 273 273 273 274 274 274 275 276 276 277 277 278 278 279 279 279 280 280 281 281 282
283 283 283 282 282 282 281 281 280 280 279 278 278 277 277 276 276 276 276 276 276 276 276 276 276 276 276 276 276 275 275 275 275 275 274 274 274 274 274 273 273 273 273 273 273 273 273 273 273 273 273 273 273 273 273 273 273 273 274 274 275 275 276 277 277 278 278 279 279 280 280 281 281 281
284 283 282 282 282 282 281 280 280 280 279 278 278 277 277 276 276 275 276 276 276 276 276 276 276 276 276 276 275 275 275 275 275 274 274 274 273 273 273 273 273 273 273 273 273 273 273 273 273 273 273 273 273 273 273 273 273 274 274 275 275 276 276 277 277 278 278 279 279 279 280 280 281 281
284 283 282 282 282 281 281 280 280 279 279 279 278 277 277 276 276 275 275 276 275 275 276 276 276 276 276 275 275 275 275 275 274 273 273 273 273 273 272 273 273 273 273 273 273 273 273 273 273 273 272 272 273 273 273 273 274 274 274 275 275 276 277 277 277 278 278 279 279 279 279 280 280 280
284 283 282 281 281 281 280 280 279 279 279 279 278 278 277 276 276 276 276 276 275 275 275 275 276 275 275 275 275 275 275 274 273 273 273 272 272 272 272 272 273 273 273 272 272 272 272 272 272 272 272 272 272 272 272 272 273 273 274 275 275 276 276 277 277 277 278 278 278 279 279 279 280 280
283 282 282 281 280 280 280 279 279 279 278 278 278 278 277 277 276 276 276 276 275 275 275 275 275 275 275 275 275 275 274 273 272 272 272 272 272 272 272 272 272 272 271 271 271 271 271 271 271 271 271 271 271 271 271 272 272 273 273 274 275 275 276 276 276 277 277 278 278 278 278 279 279 279
283 282 281 281 280 279 279 279 278 278 278 278 278 278 277 276 276 276 276 276 275 275 275 275 275 275 275 275 274 274 273 272 272 272 272 272 272 271 271 271 270 270 270 270 270 270 270 270 270 271 271 271 271 271 271 271 272 272 273 274 274 275 275 276 276 276 277 277 277 278 278 278 278 279
283 282 281 280 280 279 278 278 278 278 278 278 278 278 277 276 276 276 276 276 275 275 275 274 274 274 274 274 274 273 273 272 272 272 271 271 270 270 270 270 270 270 270 269 269 269 269 269 269 270 270 270 270 270 270 271 271 272 272 273 274 274 275 275 275 276 276 276 277 277 277 278 278 278
282 281 281 280 279 278 278 278 278 278 278 277 278 277 276 276 275 275 275 275 275 275 275 275 274 274 274 274 273 273 273 273 272 271 270 270 269 269 269 269 270 270 269 269 268 268 268 268 269 269 269 269 269 269 270 270 270 271 271 272 273 273 274 274 274 275 275 275 276 276 277 277 278 278
281 280 280 280 279 278 277 278 278 279 278 277 277 277 276 275 275 274 275 275 275 275 275 275 274 274 274 273 273 273 273 272 271 270 269 268 268 268 268 268 269 268 268 268 267 267 267 268 268 268 268 268 269 269 269 270 270 270 270 271 271 271 272 273 273 273 274 275 275 276 276 277 277 277
279 279 279 279 278 278 277 278 279 279 278 277 277 276 275 274 274 274 274 274 274 274 274 274 274 273 273 273 272 272 272 271 270 268 268 267 266 266 267 267 267 267 268 268 267 267 268 268 267 267 267 267 269 269 269 270 269 269 269 269 269 270 270 271 272 272 273 273 274 274 275 276 276 276
278 278 278 278 278 277 277 278 279 279 277 276 276 275 275 275 274 274 274 274 273 273 273 273 273 272 272 271 271 270 270 269 268 268 268 267 265 265 265 265 265 265 267 268 267 266 266 266 265 266 266 266 268 268 268 268 268 268 268 268 268 269 270 270 271 272 272 273 273 274 274 275 276 276
278 277 277 277 277 277 277 278 279 279 277 276 275 275 275 274 274 273 273 272 272 272 272 271 271 271 270 269 269 268 268 268 268 268 268 267 266 264 263 264 264 264 266 267 266 265 265 265 264 265 265 265 266 267 267 267 267 267 267 267 268 269 269 270 271 271 272 272 272 273 273 274 275 276
277 277 277 277 277 277 277 278 279 279 277 276 275 275 274 274 274 273 272 272 272 271 271 270 270 269 268 268 268 268 268 268 268 268 267 267 266 264 263 263 263 264 266 267 266 264 263 263 263 263 264 265 265 266 266 266 266 267 267 268 268 269 270 270 271 271 272 272 272 272 273 273 274 275
277 277 276 276 277 277 277 278 279 279 277 275 275 275 274 274 273 272 272 272 271 270 269 269 268 267 267 267 267 268 268 268 268 268 267 267 266 265 265 264 263 264 266 267 265 263 262 262 262 262 263 264 265 265 265 266 266 267 267 268 268 269 269 270 271 271 272 272 272 272 273 273 274 275
276 276 276 276 277 278 278 278 279 278 276 275 275 275 274 274 273 272 271 270 269 269 268 268 267 267 267 267 268 268 268 268 268 268 268 267 267 266 265 265 264 265 266 266 266 264 262 261 262 262 262 263 264 264 265 265 266 267 267 268 268 268 269 270 271 272 272 272 273 273 273 273 274 275
277 276 276 277 277 278 278 278 278 277 276 275 275 275 274 273 272 271 270 269 269 268 267 267 267 267 267 267 268 268 268 268 268 268 268 267 267 266 266 266 266 266 266 266 265 265 264 263 263 263 263 263 264 264 265 266 267 267 267 267 268 268 269 270 271 272 272 273 273 273 273 273 274 275
277 277 277 277 278 278 278 278 277 276 276 275 275 274 273 273 271 270 269 269 268 267 267 267 267 267 267 268 268 268 268 268 267 267 267 267 266 266 265 264 266 267 267 266 266 265 264 264 263 263 264 264 265 266 266 266 266 266 266 267 267 268 269 271 272 272 272 272 272 273 273 273 274 275
277 277 278 278 278 277 277 276 275 275 275 274 273 273 272 272 271 270 270 269 267 267 267 266 266 267 268 268 268 268 268 267 267 267 267 267 266 265 263 264 265 267 267 266 266 265 265 264 264 264 264 265 265 266 266 266 266 266 266 267 267 269 270 272 272 272 271 271 272 273 274 274 274 275
277 277 277 276 276 275 275 274 273 273 273 272 272 272 271 271 270 270 269 268 267 266 266 266 267 267 267 267 268 268 267 267 267 267 267 266 265 264 263 264 266 267 266 266 266 266 265 265 264 264 264 265 265 265 265 265 266 266 267 268 269 270 271 271 271 270 270 271 271 273 274 275 275 276
276 275 275 274 273 273 272 271 270 270 270 270 270 270 270 270 269 268 267 266 266 266 266 266 267 267 267 267 267 267 267 266 266 266 266 265 264 263 264 265 266 266 266 266 266 266 265 265 265 264 264 265 265 265 265 265 266 267 268 270 270 270 270 270 270 270 270 270 271 273 275 276 277 278
275 274 273 273 272 272 271 270 269 269 269 268 268 268 268 268 267 266 266 266 266 266 266 266 267 267 267 267 267 267 266 266 265 265 265 264 263 263 264 265 266 266 265 265 265 265 265 265 265 265 265 265 265 266 266 266 267 269 269 269 269 270 269 269 269 269 269 270 272 275 278 279 280 280
274 273 273 272 272 271 271 270 269 269 268 268 267 266 266 266 266 265 265 265 265 265 266 266 267 267 267 266 266 266 266 265 265 264 264 263 263 263 263 264 265 265 265 265 265 265 265 265 265 264 265 265 266 267 268 269 269 269 269 269 268 268 268 268 268 268 269 270 272 275 278 281 281 281
274 273 272 272 271 271 271 270 269 269 268 268 267 266 265 265 264 265 265 265 265 265 266 266 266 266 266 266 266 266 265 265 264 264 263 263 263 262 263 264 264 264 264 264 265 265 265 265 265 264 264 264 265 266 268 269 269 267 267 268 268 268 267 267 268 268 269 271 272 274 276 279 282 283
274 273 272 272 271 271 271 270 269 268 268 268 267 267 266 265 265 265 265 265 265 265 266 266 266 266 266 266 266 265 265 264 263 263 263 263 262 263 263 264 264 264 264 264 264 265 265 265 264 263 263 263 264 265 266 267 267 268 268 267 267 267 267 267 267 268 269 270 272 273 274 277 280 283
273 273 272 271 271 270 270 269 268 268 268 267 267 267 266 266 265 265 265 264 265 265 265 265 266 266 266 266 265 265 264 264 263 263 263 263 262 262 263 263 263 263 263 263 264 265 265 265 264 263 262 262 262 264 265 265 266 267 268 267 266 267 266 266 267 268 269 270 272 273 273 276 280 284
273 272 272 271 270 270 269 268 268 268 267 267 267 267 267 266 265 265 264 264 265 265 265 265 266 266 266 265 265 264 264 263 263 263 262 262 261 261 261 262 262 262 263 263 264 265 265 265 264 263 262 261 262 262 263 263 263 265 266 266 266 266 266 266 267 268 269 271 272 272 274 278 282 285
272 271 271 270 270 269 269 268 268 268 268 268 268 267 267 266 265 265 265 265 265 265 265 265 266 265 265 265 265 264 264 263 263 263 262 261 261 261 260 260 261 262 262 263 264 264 264 264 263 262 261 261 261 262 262 262 263 265 266 266 267 266 265 266 267 268 269 271 271 272 274 278 281 282
271 270 270 269 269 269 269 269 268 268 269 269 268 267 267 266 265 265 265 265 265 265 265 265 265 265 265 265 265 264 263 263 263 262 262 261 261 261 260 260 261 262 262 262 263 264 263 263 263 263 262 262 262 262 263 264 265 265 266 266 267 267 266 266 266 268 269 271 271 272 273 275 278 279
271 270 270 270 270 270 270 270 270 269 269 268 268 267 266 265 265 265 265 265 265 265 265 265 265 264 265 265 265 264 263 263 262 262 262 261 261 260 260 261 261 261 261 261 262 262 262 263 263 263 263 263 263 263 264 264 264 265 265 265 266 267 268 268 267 268 269 270 270 271 272 273 275 276
271 271 271 271 271 271 271 270 270 269 269 268 268 267 266 265 265 265 264 264 264 264 264 264 264 264 264 264 264 264 263 263 263 262 262 261 261 260 260 260 260 259 260 260 261 261 262 263 263 262 262 263 263 263 263 263 263 264 265 265 264 264 267 269 270 270 269 269 270 270 271 272 273 274
273 273 272 272 271 271 271 270 270 269 268 268 268 267 266 266 265 265 264 265 265 265 265 264 264 264 264 264 264 264 263 263 263 262 262 261 261 260 260 260 259 259 259 260 260 261 261 262 262 262 262 263 263 262 262 263 263 263 264 264 263 262 263 265 267 269 270 270 270 270 271 272 272 273
274 273 273 272 271 270 270 270 269 269 268 268 268 267 266 266 265 265 265 265 265 265 265 264 264 264 264 264 263 263 263 263 263 262 262 261 261 260 260 259 259 259 259 260 260 260 260 261 262 262 262 262 262 262 262 262 262 263 264 263 262 262 262 262 263 265 267 268 269 269 270 271 272 273
Wind_Speed
30 30 29 29 28 26 24 28 33 34 35 34 32 28 21 13 8 6 8 7 7 14 18 13 13 17 17 14 13 13 13 13 14 13 13 13 14 15 17 19 19 20 21 22 23 23 25 26 27 28 29 30 31 31 32 32 32 32 33 33 34 35 35 36 36 37 37 37 37 38 38 38 39 39
27 27 29 29 28 27 24 26 33 37 37 33 30 27 24 21 15 8 7 8 7 10 15 13 12 14 16 15 13 12 12 13 14 13 13 14 15 16 18 20 21 22 23 24 24 24 25 26 27 28 29 30 31 32 32 32 32 33 34 34 35 36 37 37 38 38 38 38 38 39 40 40 40 40
26 26 29 29 28 27 24 24 29 35 38 34 28 26 24 24 22 15 8 7 8 9 10 12 13 13 14 14 13 12 12 13 15 15 14 14 16 17 19 21 23 24 25 25 25 25 26 27 27 29 29 30 31 32 32 32 33 34 34 35 36 37 38 39 39 39 39 40 40 40 41 41 41 41
26 27 28 29 30 27 24 26 30 32 35 35 31 27 24 23 22 19 12 7 7 8 8 10 12 13 14 13 13 13 12 13 14 15 15 14 15 17 18 20 22 24 25 26 26 26 26 28 28 28 29 30 31 31 31 32 33 34 35 36 37 38 39 39 39 40 40 41 41 41 42 42 42 43
26 28 28 29 29 28 29 32 34 33 33 35 32 25 22 22 22 21 16 9 7 8 9 9 10 12 14 13 13 13 13 13 13 13 14 14 15 16 17 19 21 22 24 25 26 26 27 28 28 28 29 30 30 30 31 31 32 34 36 37 38 39 40 40 41 41 41 42 42 42 43 43 43 44
25 25 27 29 27 29 35 36 35 34 33 34 33 26 22 21 21 22 20 12 8 8 10 11 11 11 13 13 13 14 14 13 13 13 13 14 15 16 17 19 20 21 22 24 26 27 27 27 28 28 29 29 29 30 30 32 33 34 36 38 39 40 41 41 42 42 42 43 43 43 44 44 44 45
25 23 26 30 28 29 35 36 35 36 34 33 34 30 25 22 21 22 22 17 11 9 10 12 12 12 13 13 13 13 13 13 13 13 14 15 16 16 17 18 20 20 22 24 26 27 27 27 28 28 28 29 29 30 31 32 34 36 37 39 39 40 41 41 42 43 43 43 44 44 44 45 45 46
24 24 26 29 28 30 35 35 34 35 35 34 35 32 26 23 21 20 21 20 15 11 11 12 12 12 12 13 13 12 12 12 13 14 15 15 16 16 17 18 20 21 22 25 27 27 28 28 28 28 29 30 30 32 33 35 36 38 39 39 40 40 41 41 42 42 43 43 44 44 45 45 46 46
25 25 28 30 28 30 33 34 34 35 35 34 34 32 26 22 21 20 19 20 18 15 13 11 12 12 12 11 12 12 12 12 13 14 15 15 15 15 16 18 19 20 22 24 25 25 26 27 28 30 31 32 33 34 35 36 37 38 37 38 39 39 40 40 41 42 42 43 43 44 45 46 46 47
29 29 32 31 30 32 32 34 36 35 35 35 34 34 30 25 23 20 18 19 18 16 14 12 12 12 12 12 12 12 12 12 12 13 14 14 14 14 16 17 17 18 20 21 21 22 23 25 28 30 31 32 33 34 34 35 35 36 36 37 37 38 38 39 40 41 42 42 43 44 45 46 47 47
33 34 36 33 32 34 33 34 36 34 34 36 36 36 34 31 28 22 18 18 17 16 15 14 13 13 12 12 12 11 11 12 13 13 13 13 13 13 15 16 16 18 20 21 22 23 25 28 30 31 32 33 34 34 35 35 36 36 37 38 38 39 39 39 41 42 42 43 44 45 46 47 47 48
35 37 37 36 34 34 35 36 36 33 33 35 36 36 34 34 31 24 18 17 17 15 14 14 13 13 12 12 11 11 11 12 12 11 11 12 12 13 15 16 17 18 20 22 23 23 24 26 26 27 28 29 30 32 34 35 36 37 37 38 38 39 40 40 41 43 43 44 45 46 46 47 48 49
33 37 37 36 35 34 36 38 37 36 36 36 37 36 35 35 33 25 18 17 16 14 14 13 13 12 12 12 12 11 11 11 10 9 10 12 13 14 16 16 17 18 20 22 23 22 21 22 23 22 24 24 26 29 31 32 34 34 35 36 37 38 39 40 41 41 42 43 44 45 46 47 48 49
29 35 38 37 37 37 36 37 38 38 37 37 39 39 38 38 35 26 18 16 17 15 13 13 13 11 11 13 13 11 11 11 11 10 11 13 14 14 15 15 16 17 19 20 22 21 18 20 23 23 24 25 25 27 29 29 30 31 32 33 35 37 38 39 40 40 41 42 44 45 46 47 48 49
27 29 35 37 37 37 37 37 38 36 34 34 36 36 37 39 39 33 24 18 17 16 14 14 14 12 11 13 13 11 10 11 11 10 11 13 14 13 11 10 11 14 15 18 21 22 18 19 25 27 26 27 28 29 30 30 31 32 33 35 37 38 39 39 40 41 42 44 45 46 46 46 47 48
28 26 32 35 35 37 37 35 34 32 30 30 29 29 30 34 37 37 34 27 21 19 16 14 15 14 12 12 12 12 11 11 10 10 12 13 13 13 12 12 14 15 15 17 22 24 19 18 25 30 29 29 31 32 32 32 33 34 35 38 39 40 40 41 42 43 44 45 46 46 46 46 47 48
32 31 32 31 32 36 34 30 30 32 30 28 27 26 26 28 30 31 33 32 28 25 20 15 15 15 13 12 12 12 11 10 10 11 14 14 13 14 15 16 19 18 16 18 23 26 22 20 26 31 31 30 30 30 31 31 32 34 36 38 39 39 40 41 41 42 43 44 45 46 46 46 48 49
33 34 32 28 29 32 30 27 29 32 31 27 25 25 24 25 26 25 26 27 26 26 23 18 15 14 14 12 12 12 11 10 12 13 14 13 13 15 17 20 22 24 25 23 22 22 21 20 23 28 30 29 29 29 30 30 31 34 36 37 38 39 39 40 41 42 43 43 44 45 45 46 47 48
34 34 33 30 30 31 30 29 30 32 31 26 23 23 23 23 24 24 26 26 24 23 23 20 16 14 15 14 13 12 12 13 13 12 13 14 15 16 20 23 26 30 31 24 16 17 20 18 21 27 29 29 30 29 28 30 31 34 36 37 38 38 38 40 40 42 43 43 43 45 45 45 47 48
33 33 33 33 33 31 30 29 29 31 32 27 22 21 21 21 21 22 23 24 22 22 22 21 19 17 16 14 12 11 10 10 11 11 13 16 15 14 16 19 21 23 23 18 14 17 22 18 19 27 28 27 30 29 27 29 31 33 35 36 37 36 36 37 39 41 43 44 44 45 45 45 47 48
31 32 33 33 32 30 30 29 28 30 30 25 21 20 20 21 21 21 21 20 19 22 22 20 18 16 13 12 12 12 11 12 12 12 11 11 10 10 9 11 14 16 19 20 16 15 19 17 17 24 29 28 30 32 31 32 31 32 33 34 33 33 33 34 35 38 41 43 44 45 45 45 46 46
23 28 32 32 31 31 32 30 29 29 28 23 19 19 21 21 19 21 23 20 17 18 18 16 16 15 15 16 16 16 16 16 17 16 15 12 9 9 9 9 11 15 21 25 17 10 14 15 14 20 26 27 28 29 28 27 24 22 25 27 29 31 32 33 35 37 39 41 42 43 45 45 44 44
16 23 28 30 32 32 31 28 27 30 28 21 17 19 22 18 16 20 26 24 20 19 17 16 16 16 16 17 17 17 18 20 21 20 20 17 12 11 11 10 10 9 11 14 10 7 10 14 14 15 16 17 16 15 15 16 17 19 23 26 30 31 31 33 35 36 37 39 40 42 44 44 43 42
17 21 23 26 28 29 27 26 26 29 27 21 19 23 24 19 16 21 26 24 21 19 17 15 15 15 16 16 16 17 18 19 18 17 17 17 16 14 12 11 10 8 10 13 12 11 12 13 15 15 12 11 12 14 17 19 19 23 25 26 28 29 28 29 31 32 34 37 39 41 44 44 42 40
18 19 20 22 24 24 25 25 25 27 26 23 25 29 27 22 21 24 24 21 18 17 15 13 13 13 13 13 13 14 14 13 13 13 13 14 16 16 16 14 12 14 20 23 19 14 12 13 16 17 15 17 18 23 30 29 23 22 24 25 27 28 27 27 29 30 32 34 37 38 40 42 41 40
15 16 18 22 23 23 23 23 25 26 25 24 28 29 25 21 22 23 21 19 16 14 12 11 10 10 11 11 11 11 10 9 9 9 10 11 14 16 19 19 17 19 24 26 21 17 17 18 19 17 16 17 18 21 27 28 23 21 21 23 26 27 27 27 29 32 32 33 36 37 37 38 39 40
14 15 18 23 24 23 22 22 24 26 25 23 26 25 20 18 19 20 20 17 15 13 12 10 8 8 10 10 9 7 6 6 7 8 9 11 12 14 17 19 22 25 26 24 22 22 23 23 23 21 18 17 17 17 18 21 24 25 25 26 27 28 28 29 30 34 36 35 35 36 35 36 37 39
20 20 21 23 23 22 22 23 24 25 25 23 22 21 20 20 19 19 19 17 15 12 10 8 7 7 9 9 7 5 4 5 7 8 9 10 11 12 14 17 20 23 23 21 19 21 24 28 29 28 25 21 18 16 15 18 24 29 30 31 29 27 27 29 31 34 34 33 34 34 33 33 33 33
26 25 24 23 23 23 23 23 22 23 23 22 21 21 22 21 20 19 19 18 14 10 8 8 7 7 9 7 5 3 3 4 5 7 9 11 12 13 15 18 19 20 19 17 17 18 21 26 30 30 27 24 23 23 21 21 26 30 29 29 30 29 28 29 30 30 30 31 32 33 33 32 31 30
25 24 24 24 24 23 22 22 22 23 22 22 23 22 22 21 20 19 18 16 12 8 7 9 8 7 7 5 3 2 3 3 5 8 10 11 13 14 15 17 19 18 16 15 16 17 17 21 26 27 25 24 25 28 27 24 26 29 27 27 28 28 26 26 26 27 30 32 32 32 33 33 32 31
23 22 22 23 22 21 22 24 26 26 25 26 26 24 22 21 20 18 15 13 11 9 9 10 9 7 6 4 2 1 2 3 5 7 10 11 13 15 14 14 14 15 16 16 16 16 17 19 22 22 24 24 25 28 28 25 25 27 27 27 26 24 24 27 29 31 32 32 31 31 31 31 32 32
20 20 22 24 25 25 27 28 28 27 27 26 25 24 22 20 18 15 12 11 12 12 12 11 8 7 5 3 2 1 2 3 5 7 9 10 13 14 12 10 11 13 17 20 20 18 17 19 20 21 23 24 25 28 27 24 24 26 26 26 25 25 27 29 30 33 34 32 30 30 29 29 30 31
23 23 24 24 25 27 28 28 26 25 25 24 22 21 20 17 15 13 12 12 13 13 12 10 8 6 5 3 2 1 2 3 5 8 9 10 12 12 9 8 10 12 14 18 23 24 23 23 22 22 23 24 27 28 25 20 20 22 23 24 24 25 27 28 29 31 33 30 28 27 26 28 29 29
27 23 18 16 17 21 22 20 20 22 23 22 19 17 16 14 13 13 13 14 14 13 11 10 8 7 5 3 2 1 3 4 5 7 9 9 10 9 7 8 10 11 12 15 18 21 24 26 25 25 26 25 23 22 19 18 17 18 22 23 23 24 27 29 29 31 31 29 26 24 21 22 25 25
20 15 14 13 13 16 16 15 17 20 21 20 17 15 14 14 14 14 15 16 15 13 11 9 8 7 5 3 2 1 3 5 5 6 7 8 8 7 7 8 10 12 13 14 16 19 20 21 22 23 22 19 18 18 13 11 13 17 22 22 21 23 27 29 29 29 30 28 24 19 14 15 20 22
14 12 14 13 11 13 13 13 17 19 19 18 17 16 15 14 15 16 17 16 14 13 11 10 8 7 5 3 1 1 3 4 5 5 5 6 7 7 7 8 10 12 12 13 16 18 17 16 16 15 11 10 10 10 10 14 19 19 18 21 24 24 26 30 30 27 26 25 23 18 12 11 16 19
13 13 13 11 12 13 12 13 16 17 17 19 18 17 17 16 17 18 17 16 14 13 12 11 9 7 6 4 2 1 3 3 4 4 5 6 6 7 7 8 10 12 13 14 16 16 14 14 14 10 7 7 7 6 11 24 33 28 19 22 27 26 25 28 27 24 24 25 23 21 18 16 19 21
13 14 13 11 13 13 12 16 18 17 18 20 19 18 18 17 18 19 17 16 15 14 12 11 10 8 7 5 3 1 1 2 3 3 4 5 6 6 7 9 10 11 13 15 16 15 13 12 12 10 7 6 6 7 9 14 24 31 32 28 27 26 25 24 22 22 26 26 25 27 26 22 19 19
12 14 13 13 14 13 14 19 21 19 20 21 20 20 20 19 19 20 18 17 17 16 14 12 10 9 8 5 3 2 1 1 2 3 4 5 6 7 7 8 10 12 13 14 14 14 13 12 12 12 11 8 9 13 14 12 20 34 40 32 22 21 23 22 20 21 23 24 28 33 31 21 12 9
11 12 13 14 15 15 16 19 21 20 22 23 22 22 21 20 20 21 20 19 18 16 15 14 12 10 9 6 4 2 1 2 2 4 6 6 7 8 8 8 10 10 11 12 13 13 13 15 17 18 17 17 19 23 25 23 25 31 35 34 29 24 23 23 22 22 21 23 25 25 22 16 15 18
13 12 13 15 18 18 19 21 21 21 22 23 22 22 21 21 21 21 20 19 18 17 16 14 13 11 10 7 5 3 2 3 3 5 6 7 8 9 9 9 9 9 9 10 11 13 16 20 25 25 22 21 22 20 17 14 13 16 24 33 39 38 31 26 24 22 21 23 23 17 12 11 11 12
17 16 16 18 20 20 20 22 22 22 22 23 22 22 22 21 21 20 19 19 18 18 16 15 14 12 10 8 6 5 4 3 4 5 6 7 8 9 8 7 7 8 9 9 12 17 22 25 27 27 22 17 15 11 8 7 8 12 19 28 37 43 40 34 29 23 19 20 20 15 11 10 8 7
17 17 17 18 19 20 20 21 22 23 23 23 22 22 22 22 21 20 20 20 20 19 18 17 15 13 11 9 7 6 5 5 6 6 7 7 8 8 7 8 9 11 11 11 14 20 24 26 25 23 18 15 12 9 8 9 11 14 18 22 30 38 42 40 36 31 25 23 22 18 15 13 9 7
17 16 15 16 17 19 19 20 21 23 23 23 23 23 23 23 22 22 23 23 22 20 19 17 15 14 12 10 8 7 7 7 7 7 7 8 8 8 9 11 13 14 13 12 15 18 20 22 22 18 14 13 13 11 10 11 12 15 18 20 24 29 33 37 39 38 34 32 29 24 21 19 14 11
17 15 14 14 15 16 18 19 21 22 23 23 23 23 23 23 23 24 24 23 22 20 19 17 15 14 12 10 10 9 8 8 8 8 8 8 9 9 9 10 12 13 13 12 13 15 18 18 17 14 13 12 12 12 13 14 14 16 17 19 20 22 24 27 30 28 27 31 34 31 25 23 19 15
Wind_Direction
231 228 227 227 229 226 218 216 219 219 218 218 215 210 206 207 214 227 228 235 230 200 190 193 212 217 213 205 207 213 215 220 222 222 227 233 239 245 251 256 261 266 270 273 273 273 272 272 272 271 270 270 269 269 269 269 270 270 271 272 272 274 275 275 276 277 277 278 278 277 278 279 280 280
230 227 227 227 227 227 219 215 219 222 220 216 214 211 207 208 213 223 231 239 233 197 189 189 193 204 206 201 202 208 214 219 220 224 235 241 246 251 254 258 264 270 275 276 274 273 272 271 271 271 271 271 269 269 268 267 268 268 268 270 270 272 273 274 274 274 274 275 274 274 274 274 275 275
229 226 226 224 224 224 217 212 217 222 221 217 212 210 207 207 211 215 224 241 231 197 185 188 189 198 207 205 204 208 216 223 228 237 245 247 252 259 263 265 268 274 280 281 278 276 274 272 272 271 271 270 269 268 267 266 266 266 266 267 269 270 272 272 272 272 272 273 272 272 272 272 271 271
224 224 225 224 222 220 214 214 218 219 220 218 215 212 208 206 207 209 212 229 228 204 190 186 185 197 211 212 209 213 221 229 235 242 246 251 258 263 267 268 269 274 280 283 283 281 277 274 272 272 270 269 268 266 265 265 265 265 266 267 268 270 270 270 270 270 271 271 270 270 270 270 270 269
224 223 224 226 223 218 216 218 219 217 217 217 215 210 205 205 203 201 203 213 223 208 197 190 184 195 210 215 217 222 230 235 237 243 248 254 259 263 268 269 269 272 277 281 284 283 278 274 273 271 270 269 267 266 265 264 264 265 265 267 268 269 269 268 268 268 268 268 268 268 268 268 269 268
225 221 222 226 223 219 222 221 218 215 215 215 213 208 204 205 201 197 198 200 209 210 200 196 193 195 206 217 223 227 234 239 241 247 253 258 262 265 268 269 269 270 272 276 279 278 276 274 272 271 270 269 267 266 265 265 265 266 267 268 268 268 267 267 267 267 266 266 266 267 267 267 268 268
223 217 220 224 222 221 224 221 217 215 214 213 212 210 206 205 200 196 198 197 196 204 204 198 197 200 209 220 227 230 236 241 246 252 258 262 266 266 265 268 269 269 270 273 275 275 274 273 272 270 270 269 268 267 267 266 267 268 269 269 268 267 267 266 266 266 265 265 265 265 266 266 266 267
222 215 219 223 221 221 222 219 216 214 212 212 213 211 207 205 202 196 195 196 193 195 203 203 201 203 209 218 225 230 236 242 247 256 264 266 267 266 265 267 269 270 272 274 275 275 273 272 272 271 270 270 269 268 269 269 269 269 269 269 268 267 266 265 265 265 264 264 264 264 265 265 265 265
225 220 224 225 220 220 220 216 216 215 212 211 211 209 205 201 198 193 191 194 193 193 200 205 204 205 209 219 226 228 235 246 253 259 264 266 267 267 266 267 270 273 275 276 275 274 272 271 271 271 270 270 270 270 270 271 270 270 269 268 267 266 265 264 263 263 264 263 263 263 263 263 264 264
229 226 228 226 220 221 220 216 216 216 213 210 210 209 206 200 195 192 189 190 190 194 201 204 207 206 207 217 227 229 233 244 256 264 267 266 264 266 269 269 271 274 275 275 273 272 271 271 272 272 272 271 271 271 271 271 270 269 268 267 266 266 264 264 264 263 263 263 263 263 263 263 262 262
234 232 231 229 226 225 223 219 217 216 211 210 210 209 207 204 200 194 189 188 188 191 198 203 210 213 211 217 225 228 232 243 253 262 268 269 267 267 271 273 276 277 276 275 273 271 272 273 273 274 273 272 272 271 270 270 269 268 268 267 266 266 266 265 265 264 263 263 263 263 263 262 261 261
237 236 234 232 231 227 225 222 218 215 212 209 209 210 207 204 201 194 186 185 187 190 195 201 207 211 213 216 220 224 231 243 250 253 260 269 274 275 276 276 278 279 280 279 278 276 276 276 276 275 274 273 271 270 270 269 268 267 266 267 266 266 266 265 265 264 263 263 263 262 262 261 260 260
238 238 233 230 230 227 225 223 220 218 215 210 209 208 205 202 200 194 185 184 186 189 195 200 202 206 211 213 215 219 225 237 249 254 261 270 275 279 281 279 277 278 280 282 281 280 279 280 280 277 275 273 272 271 269 267 267 267 267 267 267 266 266 266 265 264 263 262 262 261 261 260 259 259
236 237 232 228 228 226 224 222 221 219 217 214 213 210 206 203 197 190 183 186 190 189 192 198 198 202 209 208 209 218 228 242 251 255 260 269 277 282 284 281 278 277 279 281 281 280 280 282 282 278 274 274 273 270 268 266 266 267 267 267 268 267 266 265 264 263 262 262 261 260 260 260 259 258
229 229 229 228 226 225 222 220 220 218 214 213 213 211 209 207 201 195 189 184 186 189 193 196 197 202 209 206 207 218 232 241 244 246 256 269 277 281 282 284 284 281 280 283 283 283 282 281 281 279 276 275 273 269 268 268 267 268 269 270 269 267 266 266 265 265 263 262 262 261 261 261 259 259
225 221 224 224 222 222 220 217 216 214 210 208 207 206 206 206 205 204 202 196 190 188 190 194 199 205 205 202 208 219 228 232 234 246 260 266 270 273 273 275 279 282 286 288 287 285 284 283 281 280 276 273 273 272 270 270 269 269 270 270 269 268 269 268 267 267 266 264 264 263 263 262 260 259
225 221 219 216 215 217 215 211 210 208 207 205 203 201 200 199 200 204 207 209 206 201 196 193 198 202 201 205 215 217 216 219 231 253 264 265 266 266 266 269 274 280 286 288 288 286 284 282 280 278 278 276 275 274 272 271 270 268 268 270 270 269 269 269 268 267 266 266 265 264 264 263 262 260
222 218 214 208 208 209 206 203 203 202 199 196 197 197 195 195 195 197 204 210 212 211 207 201 199 200 200 204 209 207 210 226 243 256 262 263 264 263 266 272 275 279 282 281 282 284 283 283 280 277 279 281 278 274 274 273 270 268 269 271 271 270 270 269 269 268 268 267 266 265 264 263 262 261
218 215 210 206 205 202 200 199 198 197 192 187 189 190 187 188 191 194 200 204 206 210 210 206 199 194 198 207 216 228 243 251 249 248 251 257 264 267 273 276 276 280 283 276 264 272 281 283 280 278 281 283 280 276 274 273 270 269 271 271 270 270 271 270 269 269 269 268 266 265 264 263 262 261
215 211 207 206 204 198 196 197 195 192 188 184 184 185 181 180 182 187 195 200 202 205 208 209 207 207 214 221 228 237 241 234 231 239 252 259 264 268 275 277 274 279 283 271 249 265 280 282 279 281 284 284 281 279 275 272 271 269 269 271 271 271 271 271 271 271 269 268 267 266 264 263 262 261
209 208 206 204 200 194 195 196 191 187 184 181 182 180 174 171 173 179 186 191 199 206 209 211 210 209 210 206 209 215 215 223 239 252 260 261 260 262 267 275 275 276 283 280 267 263 275 281 281 284 288 285 280 278 276 272 269 267 266 267 271 273 272 271 272 272 270 268 267 267 265 264 263 262
200 201 203 201 195 193 197 195 190 187 182 177 178 174 167 165 166 174 179 178 182 191 192 190 188 191 198 207 218 226 230 244 256 259 260 258 253 257 258 267 280 282 285 289 284 259 267 284 290 293 297 292 279 271 270 269 264 260 262 268 273 273 272 273 274 275 273 270 269 267 266 264 264 262
182 188 195 198 196 196 196 191 189 189 182 176 175 169 165 165 167 174 178 176 174 175 176 182 191 205 221 231 240 242 244 254 261 261 261 257 247 250 255 262 279 287 287 294 293 269 277 293 297 298 304 301 286 268 257 259 263 266 271 276 277 273 271 273 276 276 274 272 270 268 266 263 262 260
163 173 184 192 193 192 190 187 189 189 181 175 177 174 172 172 172 176 179 180 183 185 190 202 215 227 237 240 245 248 251 257 260 260 261 256 248 246 249 255 258 253 263 281 287 285 291 296 294 291 285 281 289 290 280 274 274 279 281 280 278 276 273 272 275 279 279 275 271 269 266 262 259 256
156 163 172 179 181 183 184 187 190 187 179 178 182 183 183 182 180 179 179 181 187 194 201 213 223 230 236 240 245 249 249 251 253 257 259 258 253 247 245 248 244 246 267 284 287 283 285 286 285 286 277 266 271 286 291 288 280 277 282 281 277 277 275 273 275 281 284 280 274 270 266 260 257 254
152 158 167 172 175 179 182 187 190 182 174 178 187 188 184 180 180 182 182 182 186 191 196 206 216 225 234 241 243 243 243 247 256 263 266 267 264 256 252 252 247 252 273 290 291 280 276 277 276 277 274 271 272 280 288 292 289 285 285 280 276 276 276 276 278 282 284 282 276 270 265 261 257 253
150 157 166 170 173 178 180 187 188 176 165 174 187 185 173 166 171 179 180 179 180 183 188 198 209 223 232 234 234 236 250 267 276 281 286 286 282 274 269 266 262 266 279 292 291 282 275 271 268 266 265 271 282 283 280 284 289 291 290 285 280 278 276 276 277 279 280 280 277 271 265 261 258 254
160 164 168 168 171 174 177 183 181 167 160 169 175 169 162 162 168 173 174 173 174 176 185 196 205 217 222 221 223 236 263 283 284 288 300 305 301 295 293 290 285 283 287 292 290 283 275 269 269 269 264 263 271 277 275 277 282 287 292 293 287 280 275 275 276 276 277 279 277 270 263 258 255 252
169 168 165 163 165 168 173 176 168 155 153 160 159 157 161 165 167 169 170 172 174 175 184 194 196 205 212 211 216 242 265 286 296 306 317 324 326 323 317 312 306 300 295 293 290 285 277 272 274 274 267 259 260 265 270 279 282 283 288 292 289 285 280 277 276 277 280 283 280 269 259 254 251 248
161 158 157 158 161 166 170 164 150 142 146 150 150 156 165 167 169 172 172 174 177 177 184 191 191 192 199 199 205 252 286 310 325 334 337 336 336 335 326 316 311 309 308 303 298 293 285 280 281 277 269 264 265 267 271 278 282 282 283 284 286 289 286 282 285 287 287 287 283 272 260 253 249 246
148 151 154 154 154 156 153 145 138 138 143 146 149 156 164 168 173 177 179 183 184 181 182 186 185 181 179 174 179 250 342 351 342 345 348 344 340 338 329 312 304 310 316 316 312 303 293 291 291 280 268 265 268 270 272 274 276 281 283 280 277 280 286 293 298 295 289 287 286 277 262 251 245 243
141 143 142 138 137 139 136 132 132 135 140 144 150 156 161 167 174 180 186 190 189 187 184 179 170 164 161 155 150 116 25 7 353 355 356 347 339 337 330 309 300 312 323 327 330 325 310 303 299 286 274 271 272 275 277 275 272 273 278 280 277 278 289 297 296 292 291 291 288 279 264 249 243 240
132 131 130 130 133 134 131 129 130 132 137 142 148 156 161 167 176 182 185 186 187 188 182 171 160 153 153 157 150 89 42 17 6 5 1 350 340 335 322 300 302 314 318 321 328 332 328 322 314 303 294 289 284 280 274 267 268 272 277 287 293 292 294 295 291 289 293 293 287 279 263 246 240 238
135 131 130 131 134 135 133 132 133 138 144 146 149 157 166 173 179 183 184 187 188 184 173 165 163 160 156 162 160 81 29 12 8 5 359 352 343 331 314 306 314 320 315 311 318 325 328 328 325 320 316 312 306 298 276 251 260 288 296 296 297 297 297 296 293 293 294 288 285 284 271 250 241 236
134 134 135 135 138 138 137 139 145 151 155 156 157 162 169 176 181 183 187 190 187 179 170 166 167 169 168 168 154 68 14 4 5 359 351 345 335 319 309 309 313 316 316 314 316 321 324 326 328 328 327 324 324 327 310 258 261 299 309 305 302 300 299 300 299 297 296 292 290 291 283 262 251 237
134 139 141 140 143 143 142 149 157 160 163 165 168 172 175 180 186 189 191 190 183 176 176 175 172 175 179 175 154 41 12 6 358 345 334 332 327 319 311 306 307 310 311 311 316 320 322 324 328 330 331 327 325 328 322 309 308 310 307 309 314 310 302 304 304 299 299 301 299 298 296 281 265 245
138 145 144 145 151 150 151 159 163 166 170 174 178 181 183 188 193 194 193 190 182 180 183 182 180 183 186 184 177 24 7 1 348 333 328 328 327 323 319 315 312 312 312 313 319 323 323 325 331 331 320 319 319 297 300 314 323 327 324 315 316 314 309 309 310 306 306 308 303 297 291 279 275 264
145 150 150 154 159 159 162 168 170 174 178 182 186 190 191 195 196 195 192 189 187 188 188 186 188 194 197 196 192 186 346 337 323 317 320 323 326 327 325 321 315 311 311 313 318 325 327 326 330 330 320 316 312 299 301 313 320 326 330 325 314 312 316 315 310 309 310 311 312 310 300 280 272 266
151 157 159 163 167 169 172 176 180 183 185 188 192 195 196 197 196 195 194 191 191 194 193 191 196 202 203 205 201 196 277 311 306 310 315 319 324 323 317 313 313 312 311 311 315 326 334 333 330 326 315 294 280 289 297 291 290 306 322 330 322 313 319 319 311 309 312 314 319 322 318 312 330 360
158 164 168 171 174 177 181 184 187 189 192 195 197 198 199 198 196 197 197 194 193 196 196 196 201 205 207 213 211 210 273 302 307 322 329 328 328 327 319 312 310 308 308 311 315 323 330 331 331 328 316 303 298 295 292 284 280 294 316 334 341 336 332 327 317 309 311 319 323 323 323 331 359 18
168 171 177 182 183 186 189 191 192 195 198 199 199 199 200 199 199 200 199 198 199 200 199 201 205 208 213 219 217 219 257 286 296 317 328 327 325 327 322 316 311 308 310 311 310 315 324 330 337 341 334 319 314 310 298 288 289 298 313 331 345 352 353 348 339 323 315 324 331 329 327 336 347 1
178 181 188 192 192 194 196 197 198 200 199 198 199 199 199 200 202 203 203 204 206 205 205 207 209 211 215 220 223 230 249 268 286 305 317 320 321 323 320 313 306 305 307 302 300 313 326 336 344 348 343 329 322 322 315 308 313 312 310 320 337 351 358 1 1 354 341 341 348 348 342 340 341 353
184 187 192 196 198 201 203 203 202 201 199 198 199 198 198 200 203 204 206 208 207 206 208 210 211 214 217 220 224 236 249 264 282 297 307 313 316 315 310 310 311 309 302 293 298 314 329 339 344 343 336 331 330 327 318 309 308 312 314 316 327 343 353 359 6 10 8 6 8 8 2 354 345 343
187 190 194 198 201 204 206 206 205 202 200 201 200 200 201 203 204 206 209 210 210 210 211 213 215 218 221 225 228 237 249 261 273 288 298 304 310 311 310 315 320 318 309 299 304 317 328 336 340 338 330 328 330 320 310 310 309 311 316 318 321 331 342 350 358 2 5 9 15 17 12 7 3 350
191 193 194 196 200 204 206 206 204 203 203 203 202 201 203 205 207 211 213 214 215 215 215 216 219 222 224 228 232 239 250 260 269 283 294 300 306 309 311 316 318 316 312 308 310 317 323 326 332 334 326 322 326 319 308 305 305 306 314 321 325 327 332 339 344 345 345 354 6 14 13 11 11 5